McKinleyville, CA

6:02 PM PST on December 05, 2016 (GMT -0800)
Arcata

Weather History for KACV - April, 2013

Change the Weather History Date:

Saturday, April 13, 2013

  Actual Average Record
Temperature  
Mean Temperature 48 °F -  
Max Temperature 53 °F 54 °F 68 °F (2002)
Min Temperature 44 °F 40 °F 36 °F (2001)
Degree Days  
Heating Degree Days 16    
Moisture  
Dew Point 41 °F    
Average Humidity 77    
Maximum Humidity 100    
Minimum Humidity 57    
Precipitation  
Precipitation 0.00 in - - ()
Sea Level Pressure  
Sea Level Pressure 30.11 in    
Wind  
Wind Speed 8 mph (North)    
Max Wind Speed 22 mph    
Max Gust Speed 31 mph    
Visibility 9 miles    
Events      
Averages and records for this station are not official NWS values.
T = Trace of Precipitation, MM = Missing Value Source: NWS Daily Summary

Daily Weather History Graph

Daily Weather History Graph

Search for Another Location

Airport or City:

Trip Planner

Search our weather history database for the weather conditions in past years. The results will help you decide how hot, cold, wet, or windy it might be!

Date:

Astronomy

Apr. 13, 2013 Rise Set
Actual Time 6:39 AM PDT 7:54 PM PDT
Civil Twilight 6:11 AM PDT 8:22 PM PDT
Nautical Twilight 5:37 AM PDT 8:57 PM PDT
Astronomical Twilight 5:01 AM PDT 9:32 PM PDT
Moon 8:34 AM PDT (4/13) 11:24 PM PDT (4/13)
Length of Visible Light 14h 11m
Length of Day
13h 14m
Waxing Crescent, 11% of the Moon is Illuminated
Apr 13
Waxing Crescent
Apr 18
First Quarter
Apr 25
Full
May 2
Last Quarter
May 9
New

Hourly Weather History & Observations

Time (PDT) Temp. Windchill Dew Point Humidity Pressure Visibility Wind Dir Wind Speed Gust Speed Precip Events Conditions
12:53 AM 45.0 °F - 43.0 °F 93% 30.08 in 10.0 mi Calm Calm - N/A   Mostly Cloudy
1:49 AM 46.4 °F - 44.6 °F 93% 30.05 in 10.0 mi Calm Calm - N/A   Overcast
1:53 AM 46.0 °F - 44.1 °F 93% 30.07 in 10.0 mi Calm Calm - N/A   Overcast
2:53 AM 46.9 °F - 45.0 °F 93% 30.07 in 10.0 mi Calm Calm - N/A   Overcast
3:31 AM 46.4 °F 41.9 °F 46.4 °F 100% 30.06 in 2.5 mi NNW 9.2 mph - N/A   Overcast
3:39 AM 46.4 °F 42.4 °F 46.4 °F 100% 30.06 in 1.8 mi NNW 8.1 mph - N/A   Overcast
3:43 AM 46.4 °F 42.9 °F 46.4 °F 100% 30.05 in 2.0 mi NNW 6.9 mph - N/A   Overcast
3:53 AM 46.9 °F - 46.9 °F 100% 30.07 in 2.0 mi North 6.9 mph - N/A   Overcast
4:08 AM 46.4 °F 43.5 °F 46.4 °F 100% 30.06 in 5.0 mi North 5.8 mph - N/A   Overcast
4:53 AM 46.9 °F - 46.9 °F 100% 30.08 in 7.0 mi North 6.9 mph - N/A   Overcast
5:28 AM 46.4 °F 41.5 °F 44.6 °F 93% 30.06 in 10.0 mi North 10.4 mph - 0.00 in   Overcast
5:53 AM 45.0 °F 39.3 °F 44.1 °F 97% 30.09 in 7.0 mi North 11.5 mph - 0.00 in   Overcast
6:45 AM 44.6 °F 39.7 °F 42.8 °F 93% 30.08 in 9.0 mi North 9.2 mph 18.4 mph N/A   Overcast
6:53 AM 45.0 °F 38.9 °F 42.1 °F 90% 30.10 in 9.0 mi North 12.7 mph 17.3 mph N/A   Overcast
7:53 AM 46.0 °F 41.9 °F 41.0 °F 83% 30.12 in 10.0 mi NNE 8.1 mph - N/A   Mostly Cloudy
8:10 AM 46.4 °F 42.9 °F 39.2 °F 76% 30.10 in 10.0 mi North 6.9 mph - N/A   Mostly Cloudy
8:53 AM 48.9 °F - 41.0 °F 74% 30.13 in 10.0 mi North 10.4 mph - N/A   Mostly Cloudy
9:53 AM 50.0 °F - 39.9 °F 68% 30.13 in 10.0 mi North 12.7 mph 21.9 mph N/A   Partly Cloudy
10:30 AM 50.0 °F - 39.2 °F 66% 30.11 in 10.0 mi North 16.1 mph 25.3 mph N/A   Mostly Cloudy
10:53 AM 51.1 °F - 39.0 °F 63% 30.13 in 10.0 mi North 18.4 mph - N/A   Scattered Clouds
11:53 AM 53.1 °F - 37.9 °F 57% 30.14 in 10.0 mi North 17.3 mph 24.2 mph N/A   Clear
12:53 PM 51.1 °F - 39.9 °F 66% 30.14 in 10.0 mi NNW 21.9 mph 27.6 mph N/A   Clear
1:37 PM 51.8 °F - 42.8 °F 71% 30.12 in 10.0 mi North 15.0 mph 27.6 mph N/A   Mostly Cloudy
1:44 PM 51.8 °F - 39.2 °F 62% 30.12 in 10.0 mi North 19.6 mph 31.1 mph N/A   Mostly Cloudy
1:53 PM 52.0 °F - 39.9 °F 63% 30.14 in 10.0 mi North 19.6 mph 29.9 mph N/A   Mostly Cloudy
2:53 PM 53.1 °F - 39.9 °F 61% 30.15 in 10.0 mi NNW 16.1 mph 26.5 mph N/A   Partly Cloudy
3:53 PM 52.0 °F - 37.9 °F 59% 30.14 in 10.0 mi North 20.7 mph 29.9 mph N/A   Mostly Cloudy
4:35 PM 51.8 °F - 39.2 °F 62% 30.11 in 10.0 mi North 20.7 mph 28.8 mph N/A   Overcast
4:53 PM 51.1 °F - 39.9 °F 66% 30.13 in 10.0 mi NNW 19.6 mph 26.5 mph N/A   Overcast
5:01 PM 51.8 °F - 37.4 °F 58% 30.11 in 10.0 mi North 19.6 mph 27.6 mph N/A   Mostly Cloudy
5:33 PM 50.0 °F - 37.4 °F 62% 30.11 in 10.0 mi North 16.1 mph 24.2 mph N/A   Mostly Cloudy
5:53 PM 50.0 °F - 39.0 °F 66% 30.14 in 10.0 mi North 16.1 mph 26.5 mph N/A   Mostly Cloudy
6:27 PM 50.0 °F - 39.2 °F 66% 30.11 in 10.0 mi North 13.8 mph 20.7 mph N/A   Scattered Clouds
6:53 PM 48.0 °F - 37.9 °F 68% 30.13 in 10.0 mi North 17.3 mph 25.3 mph N/A   Scattered Clouds
7:23 PM 48.2 °F - 39.2 °F 71% 30.11 in 10.0 mi North 12.7 mph 20.7 mph N/A   Mostly Cloudy
7:41 PM 46.4 °F 41.1 °F 37.4 °F 71% 30.10 in 10.0 mi North 11.5 mph 20.7 mph N/A   Scattered Clouds
7:53 PM 46.0 °F 39.9 °F 37.9 °F 73% 30.13 in 10.0 mi North 13.8 mph - N/A   Partly Cloudy
8:53 PM 45.0 °F 39.7 °F 37.9 °F 76% 30.15 in 10.0 mi North 10.4 mph - N/A   Partly Cloudy
9:53 PM 45.0 °F 41.8 °F 37.9 °F 76% 30.16 in 10.0 mi NNE 5.8 mph - N/A   Mostly Cloudy
10:05 PM 44.6 °F 42.2 °F 37.4 °F 76% 30.14 in 10.0 mi North 4.6 mph - N/A   Mostly Cloudy
10:27 PM 44.6 °F 40.7 °F 37.4 °F 76% 30.14 in 10.0 mi North 6.9 mph - N/A   Mostly Cloudy
10:53 PM 45.0 °F 42.6 °F 37.9 °F 76% 30.16 in 10.0 mi Variable 4.6 mph - N/A   Mostly Cloudy
11:13 PM 44.6 °F - 37.4 °F 76% 30.14 in 10.0 mi Calm Calm - N/A   Overcast
11:34 PM 44.6 °F 43.1 °F 37.4 °F 76% 30.14 in 10.0 mi NNE 3.5 mph - N/A   Overcast
11:53 PM 45.0 °F - 37.0 °F 74% 30.16 in 10.0 mi Calm Calm - N/A   Overcast